TimeMDT,TemperatureF,Dew PointF,Humidity,Sea Level PressureIn,VisibilityMPH,Wind Direction,Wind SpeedMPH,Gust SpeedMPH,PrecipitationIn,Events,Conditions,WindDirDegrees,DateUTC
12:53 AM,70.0,12.9,11,29.62,10.0,SSE,13.8,-,N/A,,Clear,160,2013-05-24 06:53:00
1:53 AM,66.0,15.1,14,29.64,10.0,South,4.6,-,N/A,,Clear,170,2013-05-24 07:53:00
2:53 AM,64.0,15.1,15,29.66,10.0,East,5.8,-,N/A,,Clear,80,2013-05-24 08:53:00
3:53 AM,59.0,16.0,19,29.70,10.0,East,5.8,-,N/A,,Clear,90,2013-05-24 09:53:00
4:53 AM,57.9,17.1,20,29.74,10.0,NE,3.5,-,N/A,,Clear,40,2013-05-24 10:53:00
5:53 AM,61.0,16.0,17,29.76,10.0,Variable,4.6,-,N/A,,Clear,0,2013-05-24 11:53:00
6:53 AM,60.1,21.0,22,29.81,10.0,SE,6.9,-,N/A,,Clear,140,2013-05-24 12:53:00
7:53 AM,66.0,21.0,18,29.81,10.0,ESE,9.2,-,N/A,,Clear,120,2013-05-24 13:53:00
8:53 AM,70.0,21.9,16,29.82,10.0,East,3.5,-,N/A,,Clear,80,2013-05-24 14:53:00
9:53 AM,73.0,15.1,11,29.82,10.0,NW,5.8,-,N/A,,Clear,320,2013-05-24 15:53:00
10:53 AM,75.0,16.0,11,29.82,10.0,NW,5.8,-,N/A,,Clear,320,2013-05-24 16:53:00
11:53 AM,75.9,15.1,10,29.80,10.0,Calm,Calm,-,N/A,,Clear,0,2013-05-24 17:53:00
12:53 PM,79.0,15.1,9,29.79,10.0,WNW,8.1,17.3,N/A,,Clear,300,2013-05-24 18:53:00
1:53 PM,79.0,14.0,9,29.77,10.0,Variable,4.6,-,N/A,,Clear,0,2013-05-24 19:53:00
2:53 PM,81.0,15.1,8,29.75,10.0,Variable,3.5,-,N/A,,Clear,0,2013-05-24 20:53:00
3:53 PM,82.0,15.1,8,29.75,10.0,WNW,9.2,18.4,N/A,,Clear,300,2013-05-24 21:53:00
4:53 PM,82.9,12.0,7,29.74,10.0,SW,10.4,19.6,N/A,,Clear,230,2013-05-24 22:53:00
5:53 PM,82.0,14.0,8,29.72,10.0,West,8.1,-,N/A,,Clear,280,2013-05-24 23:53:00
6:53 PM,80.1,16.0,9,29.74,10.0,West,11.5,-,N/A,,Clear,280,2013-05-25 00:53:00
7:53 PM,77.0,15.1,10,29.73,10.0,NW,6.9,-,N/A,,Clear,310,2013-05-25 01:53:00
8:53 PM,70.0,12.9,11,29.75,10.0,NNW,6.9,-,N/A,,Clear,340,2013-05-25 02:53:00
9:53 PM,64.0,12.0,13,29.78,10.0,NNE,9.2,-,N/A,,Clear,30,2013-05-25 03:53:00
10:53 PM,62.1,10.9,13,29.78,10.0,NE,4.6,-,N/A,,Clear,50,2013-05-25 04:53:00
11:53 PM,57.9,12.0,16,29.78,10.0,East,5.8,-,N/A,,Clear,90,2013-05-25 05:53:00